Location: C�an Torras
(41.5052°N, 1.9280°E)
Time: 21:28:31
(UTC+00:00)

Cosmos 1844 Rocket - Pass Details

Date: 20 January 2021
Orbit: 826 x 843 km, 71.0° (Epoch: 02 March)

Event Time Altitude Azimuth Distance (km) Brightness Sun altitude
Rises 18:05:38 0° 194° (SSW) 3,385 6.2 -13.5°
Reaches altitude 10° 18:08:05 10° 191° (SSW) 2,454 5.5 -13.9°
Maximum altitude 18:13:40 67° 110° (ESE) 911 2.7 -14.9°
Enters shadow 18:19:01 11° 29° (NNE) 2,367 4.6 -15.9°
